Location: ??????
(33.3472°N, 35.4764°E)
Time: 11:53:18
(UTC+00:00)

SEDSat Delta rocket - Pass Details

Date: 21 August 2019
Orbit: 533 x 1001 km, 31.4° (Epoch: 21 September)

Event Time Altitude Azimuth Distance (km) Brightness Sun altitude
Exits shadow 00:19:14 51° 130° (SE) 1,240 4.5 -30.9°
Drops below altitude 10° 00:24:16 10° 109° (ESE) 2,739 6.6 -30.1°
Sets 00:26:55 0° 106° (ESE) 3,659 7.4 -29.7°
